^^
Saratoga-Weather Station Historical Data
Daily Summary for June 2, 2021 Units:  English    Metric   Both
Daily Weekly Monthly Yearly Custom
  High: Low: Average:
Temperature: 76.8 °F 51.4 °F 64.9 °F
Dew Point: 60.1 °F 49.3 °F 55.4 °F
Humidity: 93% 48% 73%
Wind Speed: 10.1mph 0mph 1.4mph
Wind Gust: 11mph - -
Wind- - West
Pressure: 30.1 in 30 in -
Precipitation: 0 in    
Historical Graphs
 
 
Tabular Data for June 2, 2021
Time Temperature Dew Point Pressure Wind Wind Speed Wind Gust Humidity Rainfall Rate (Hourly) solar
00:04 57.6 °F 53.4 °F 30 in WNW 0.9 mph 2 mph 86% 0 in 0 W/m2
00:09 57.6 °F 53.4 °F 30 in Calm   1 mph 86% 0 in 0 W/m2
00:14 57.7 °F 53.6 °F 30 in WNW 0.9 mph 2 mph 86% 0 in 0 W/m2
00:19 57.7 °F 53.6 °F 30 in WNW 0.9 mph 2 mph 86% 0 in 0 W/m2
00:24 57.7 °F 53.6 °F 30 in WNW 2 mph 3 mph 86% 0 in 0 W/m2
00:29 57.9 °F 53.8 °F 30 in West 2 mph 2 mph 86% 0 in 0 W/m2
00:34 57.9 °F 53.4 °F 30 in West 0.9 mph 2 mph 85% 0 in 0 W/m2
00:39 57.7 °F 53.2 °F 30 in Calm   2 mph 85% 0 in 0 W/m2
00:44 57.7 °F 53.2 °F 30 in Calm   2 mph 85% 0 in 0 W/m2
00:49 57.6 °F 53.4 °F 30 in West 2 mph 2 mph 86% 0 in 0 W/m2
00:54 57.6 °F 53.4 °F 30 in West 0.9 mph 2 mph 86% 0 in 0 W/m2
00:59 57.4 °F 53.2 °F 30 in West 0.9 mph 1 mph 86% 0 in 0 W/m2
01:04 57.2 °F 53.1 °F 30 in West 0.9 mph 2 mph 86% 0 in 0 W/m2
01:09 57 °F 53.2 °F 30 in Calm     87% 0 in 0 W/m2
01:14 57 °F 53.2 °F 30 in Calm     87% 0 in 0 W/m2
01:19 57 °F 53.2 °F 30 in West 0.9 mph 1 mph 87% 0 in 0 W/m2
01:24 57 °F 53.2 °F 30 in West 0.9 mph 2 mph 87% 0 in 0 W/m2
01:29 56.8 °F 53.1 °F 30 in West 0.9 mph 2 mph 87% 0 in 0 W/m2
01:34 56.8 °F 53.2 °F 30 in West 2 mph 2 mph 88% 0 in 0 W/m2
01:39 56.7 °F 53.1 °F 30 in West 0.9 mph 1 mph 88% 0 in 0 W/m2
01:44 56.7 °F 53.1 °F 30 in West 0.9 mph 1 mph 88% 0 in 0 W/m2
01:49 56.7 °F 53.1 °F 30 in West 0.9 mph 2 mph 88% 0 in 0 W/m2
01:54 56.5 °F 52.9 °F 30 in West 0.9 mph 2 mph 88% 0 in 0 W/m2
01:59 56.5 °F 52.9 °F 30 in West 0.9 mph 1 mph 88% 0 in 0 W/m2
02:04 56.5 °F 52.9 °F 30 in Calm     88% 0 in 0 W/m2
02:09 56.5 °F 52.9 °F 30 in Calm   1 mph 88% 0 in 0 W/m2
02:14 56.3 °F 53.1 °F 30 in West 2 mph 2 mph 89% 0 in 0 W/m2
02:19 56.3 °F 52.9 °F 30 in West 0.9 mph 2 mph 88% 0 in 0 W/m2
02:24 56.3 °F 52.9 °F 30 in West 2.9 mph 3 mph 88% 0 in 0 W/m2
02:29 56.5 °F 52.9 °F 30 in West 2 mph 2 mph 88% 0 in 0 W/m2
02:34 56.7 °F 52.9 °F 30 in West 0.9 mph 2 mph 87% 0 in 0 W/m2
02:39 56.8 °F 53.1 °F 30 in West 0.9 mph 2 mph 87% 0 in 0 W/m2
02:44 56.8 °F 53.1 °F 30 in West 2 mph 3 mph 87% 0 in 0 W/m2
02:49 56.8 °F 52.7 °F 30 in WSW 2.9 mph 3 mph 86% 0 in 0 W/m2
02:54 57 °F 52.5 °F 30 in West 0.9 mph 2 mph 85% 0 in 0 W/m2
02:59 57 °F 52.5 °F 30 in West 2 mph 3 mph 85% 0 in 0 W/m2
03:04 56.8 °F 52.3 °F 30 in West 2 mph 3 mph 85% 0 in 0 W/m2
03:09 56.8 °F 52.3 °F 30 in West 0.9 mph 2 mph 85% 0 in 0 W/m2
03:14 56.7 °F 52.2 °F 30 in Calm   1 mph 85% 0 in 0 W/m2
03:19 56.5 °F 52 °F 30 in Calm     85% 0 in 0 W/m2
03:24 56.3 °F 51.8 °F 30 in Calm   1 mph 85% 0 in 0 W/m2
03:29 56.1 °F 52 °F 30 in Calm     86% 0 in 0 W/m2
03:34 55.9 °F 51.8 °F 30 in Calm     86% 0 in 0 W/m2
03:39 55.8 °F 51.6 °F 30 in Calm     86% 0 in 0 W/m2
03:44 55.4 °F 51.3 °F 30 in Calm     86% 0 in 0 W/m2
03:49 55 °F 50.9 °F 30 in Calm     86% 0 in 0 W/m2
03:54 54.9 °F 50.7 °F 30 in Calm     86% 0 in 0 W/m2
03:59 54.5 °F 50.7 °F 30 in Calm     87% 0 in 0 W/m2
04:04 54.3 °F 50.5 °F 30 in Calm     87% 0 in 0 W/m2
04:09 54.1 °F 50.4 °F 30 in Calm     87% 0 in 0 W/m2
04:14 54 °F 50.5 °F 30 in Calm     88% 0 in 0 W/m2
04:20 53.8 °F 50.4 °F 30 in Calm     88% 0 in 0 W/m2
04:25 53.6 °F 50.2 °F 30 in Calm     88% 0 in 0 W/m2
04:30 53.4 °F 50.2 °F 30 in Calm     89% 0 in 0 W/m2
04:35 53.4 °F 50.2 °F 30 in Calm     89% 0 in 0 W/m2
04:40 53.4 °F 50.5 °F 30 in Calm     90% 0 in 0 W/m2
04:45 53.2 °F 50.4 °F 30 in Calm     90% 0 in 0 W/m2
04:50 53.2 °F 50.4 °F 30 in Calm     90% 0 in 0 W/m2
04:55 53.2 °F 50.4 °F 30 in Calm     90% 0 in 0 W/m2
05:00 53.1 °F 50.5 °F 30 in Calm     91% 0 in 0 W/m2
05:05 53.1 °F 50.2 °F 30 in Calm     90% 0 in 0 W/m2
05:10 52.9 °F 50.4 °F 30 in Calm     91% 0 in 0 W/m2
05:15 52.9 °F 50.4 °F 30 in Calm     91% 0 in 0 W/m2
05:20 52.7 °F 50.2 °F 30 in Calm     91% 0 in 0 W/m2
05:25 52.5 °F 50 °F 30 in Calm     91% 0 in 0 W/m2
05:30 52.3 °F 49.8 °F 30 in Calm     91% 0 in 0 W/m2
05:35 52.2 °F 49.6 °F 30 in Calm     91% 0 in 0 W/m2
05:40 52.2 °F 49.6 °F 30 in Calm     91% 0 in 0 W/m2
05:45 52 °F 49.5 °F 30 in Calm     91% 0 in 5 W/m2
05:50 52 °F 49.5 °F 30 in Calm     91% 0 in 7 W/m2
05:55 51.8 °F 49.3 °F 30 in Calm   1 mph 91% 0 in 14 W/m2
06:00 51.6 °F 49.5 °F 30 in Calm     92% 0 in 16 W/m2
06:05 51.6 °F 49.5 °F 30 in Calm   1 mph 92% 0 in 21 W/m2
06:10 51.4 °F 49.3 °F 30 in Calm     92% 0 in 26 W/m2
06:15 51.4 °F 49.3 °F 30 in Calm     92% 0 in 23 W/m2
06:20 51.4 °F 49.3 °F 30 in Calm     92% 0 in 26 W/m2
06:25 51.4 °F 49.3 °F 30 in Calm     92% 0 in 39 W/m2
06:30 51.6 °F 49.6 °F 30 in Calm     93% 0 in 54 W/m2
06:35 51.6 °F 49.6 °F 30 in Calm     93% 0 in 62 W/m2
06:40 52 °F 50 °F 30 in Calm     93% 0 in 62 W/m2
06:45 52.2 °F 50.2 °F 30 in Calm     93% 0 in 62 W/m2
06:50 52.3 °F 50.4 °F 30 in Calm     93% 0 in 62 W/m2
06:55 52.5 °F 50.5 °F 30 in West 0.9 mph 2 mph 93% 0 in 69 W/m2
07:00 53.1 °F 51.1 °F 30 in Calm   1 mph 93% 0 in 83 W/m2
07:05 53.4 °F 51.4 °F 30 in Calm     93% 0 in 98 W/m2
07:10 53.8 °F 51.8 °F 30 in Calm   1 mph 93% 0 in 102 W/m2
07:15 54.1 °F 51.8 °F 30 in Calm     92% 0 in 109 W/m2
07:20 54.7 °F 52.3 °F 30 in Calm     92% 0 in 104 W/m2
07:25 55 °F 52.5 °F 30 in Calm     91% 0 in 76 W/m2
07:30 55.4 °F 52.9 °F 30 in Calm     91% 0 in 47 W/m2
07:35 55.8 °F 52.9 °F 30 in Calm     90% 0 in 30 W/m2
07:40 55.9 °F 52.7 °F 30 in Calm     89% 0 in 28 W/m2
07:45 56.1 °F 52.9 °F 30 in Calm   1 mph 89% 0 in 93 W/m2
07:50 56.3 °F 52.9 °F 30 in Calm     88% 0 in 125 W/m2
07:55 56.5 °F 52.9 °F 30 in Calm     88% 0 in 97 W/m2
08:01 56.7 °F 53.1 °F 30 in Calm     88% 0 in 151 W/m2
08:06 57 °F 53.4 °F 30 in Calm     88% 0 in 169 W/m2
08:11 57.4 °F 53.6 °F 30 in Calm     87% 0 in 186 W/m2
08:16 57.6 °F 53.4 °F 30 in Calm     86% 0 in 195 W/m2
08:21 58.1 °F 54 °F 30 in Calm     86% 0 in 195 W/m2
08:26 58.5 °F 54 °F 30 in Calm     85% 0 in 213 W/m2
08:31 58.8 °F 53.6 °F 30 in Calm     83% 0 in 251 W/m2
08:36 59.4 °F 54.1 °F 30 in ENE 0.9 mph 2 mph 83% 0 in 285 W/m2
08:41 60.1 °F 54.5 °F 30 in Calm     82% 0 in 236 W/m2
08:46 60.4 °F 54.5 °F 30 in Calm   1 mph 81% 0 in 248 W/m2
08:51 60.6 °F 54.5 °F 30 in ENE 2 mph 2 mph 80% 0 in 260 W/m2
08:56 61 °F 55 °F 30 in Calm     81% 0 in 250 W/m2
09:01 61.2 °F 55.2 °F 30 in ENE 2 mph 2 mph 81% 0 in 232 W/m2
09:06 61.3 °F 55 °F 30 in NE 0.9 mph 2 mph 80% 0 in 237 W/m2
09:11 61.5 °F 55.6 °F 30 in ESE 0.9 mph 3 mph 81% 0 in 251 W/m2
09:16 61.9 °F 55.6 °F 30 in ENE 0.9 mph 3 mph 80% 0 in 258 W/m2
09:21 62.1 °F 55.4 °F 30 in NNE 2 mph 2 mph 79% 0 in 313 W/m2
09:26 62.1 °F 55.4 °F 30 in Calm   2 mph 79% 0 in 250 W/m2
09:31 62.2 °F 54.9 °F 30 in West 2 mph 4 mph 77% 0 in 248 W/m2
09:36 62.2 °F 54.9 °F 30 in NE 0.9 mph 7 mph 77% 0 in 250 W/m2
09:41 62.2 °F 54.9 °F 30.1 in West 0.9 mph 4 mph 77% 0 in 255 W/m2
09:46 62.4 °F 55.4 °F 30.1 in NNE 0.9 mph 7 mph 78% 0 in 264 W/m2
09:51 62.8 °F 55.4 °F 30.1 in NNW 2 mph 2 mph 77% 0 in 274 W/m2
09:56 63 °F 55.9 °F 30.1 in Calm   3 mph 78% 0 in 301 W/m2
10:01 63.3 °F 55.9 °F 30.1 in WSW 0.9 mph 1 mph 77% 0 in 338 W/m2
10:06 63.7 °F 55.9 °F 30.1 in WNW 2.9 mph 4 mph 76% 0 in 350 W/m2
10:11 63.9 °F 55.8 °F 30.1 in WNW 0.9 mph 4 mph 75% 0 in 352 W/m2
10:16 64 °F 55.9 °F 30.1 in WNW 2 mph 3 mph 75% 0 in 339 W/m2
10:21 64.2 °F 56.1 °F 30.1 in NW 2.9 mph 4 mph 75% 0 in 336 W/m2
10:26 64.6 °F 56.5 °F 30.1 in WNW 2 mph 3 mph 75% 0 in 353 W/m2
10:31 64.8 °F 56.7 °F 30.1 in WNW 4 mph 4 mph 75% 0 in 359 W/m2
10:36 64.8 °F 56.3 °F 30.1 in NNW 2.9 mph 4 mph 74% 0 in 327 W/m2
10:41 64.6 °F 56.5 °F 30.1 in Calm   6 mph 75% 0 in 339 W/m2
10:46 64.8 °F 57 °F 30.1 in WNW 0.9 mph 2 mph 76% 0 in 383 W/m2
10:51 65.1 °F 57.7 °F 30.1 in Calm   5 mph 77% 0 in 436 W/m2
10:56 65.5 °F 57.7 °F 30.1 in Calm   2 mph 76% 0 in 438 W/m2
11:01 66.2 °F 58.5 °F 30.1 in SW 4 mph 5 mph 76% 0 in 403 W/m2
11:06 66.2 °F 57.2 °F 30.1 in WSW 2 mph 9 mph 73% 0 in 466 W/m2
11:11 66 °F 57.6 °F 30.1 in WNW 2 mph 8 mph 74% 0 in 513 W/m2
11:16 66 °F 57.6 °F 30.1 in West 2 mph 9 mph 74% 0 in 482 W/m2
11:21 66.2 °F 58.1 °F 30.1 in NNW 4 mph 6 mph 75% 0 in 612 W/m2
11:26 66.6 °F 58.8 °F 30.1 in NW 2 mph 5 mph 76% 0 in 418 W/m2
11:31 67.1 °F 58.5 °F 30.1 in SW 0.9 mph 4 mph 74% 0 in 851 W/m2
11:36 68 °F 59.4 °F 30.1 in NW 4 mph 5 mph 74% 0 in 775 W/m2
11:41 68.7 °F 58.5 °F 30.1 in NNE 4 mph 8 mph 70% 0 in 861 W/m2
11:46 68.9 °F 58.3 °F 30.1 in SW 2.9 mph 5 mph 69% 0 in 248 W/m2
11:54 68.4 °F 57.4 °F 30.1 in West 0.9 mph 4 mph 68% 0 in 341 W/m2
12:03 68.9 °F 57.6 °F 30.1 in West 4 mph 11 mph 67% 0 in 339 W/m2
12:08 69.1 °F 57.2 °F 30.1 in WSW 6 mph 6 mph 66% 0 in 893 W/m2
12:13 69.3 °F 57.9 °F 30.1 in WSW 4 mph 11 mph 67% 0 in 919 W/m2
12:18 69.6 °F 57.7 °F 30.1 in WNW 0.9 mph 5 mph 66% 0 in 362 W/m2
12:23 69.6 °F 57.4 °F 30.1 in South 2 mph 8 mph 65% 0 in 271 W/m2
12:28 69.4 °F 57.6 °F 30.1 in West 2 mph 4 mph 66% 0 in 301 W/m2
12:33 69.8 °F 57.9 °F 30.1 in SW 2.9 mph 8 mph 66% 0 in 1011 W/m2
12:38 70.2 °F 57.4 °F 30.1 in West 6 mph 11 mph 64% 0 in 552 W/m2
12:43 70.3 °F 57.6 °F 30.1 in NW 2.9 mph 8 mph 64% 0 in 244 W/m2
12:48 70.2 °F 57 °F 30.1 in WNW 2 mph 4 mph 63% 0 in 193 W/m2
12:53 70.3 °F 57.2 °F 30.1 in WNW 2 mph 4 mph 63% 0 in 1004 W/m2
12:58 70.5 °F 57.4 °F 30.1 in West 6.9 mph 10 mph 63% 0 in 1102 W/m2
13:03 70.9 °F 55.8 °F 30 in WNW 2.9 mph 8 mph 59% 0 in 1099 W/m2
13:08 70.9 °F 56.8 °F 30 in NNW 2.9 mph 10 mph 61% 0 in 896 W/m2
13:13 71.2 °F 56.1 °F 30 in West 2.9 mph 7 mph 59% 0 in 972 W/m2
13:18 71.8 °F 57.6 °F 30 in NNW 4.9 mph 5 mph 61% 0 in 928 W/m2
13:23 72 °F 56.3 °F 30 in Calm   6 mph 58% 0 in 930 W/m2
13:28 72.1 °F 56.5 °F 30 in NW 4.9 mph 9 mph 58% 0 in 919 W/m2
13:33 72.7 °F 57.9 °F 30 in West 6.9 mph 8 mph 60% 0 in 916 W/m2
13:38 72.7 °F 57.6 °F 30 in WSW 4.9 mph 9 mph 59% 0 in 932 W/m2
13:43 72.3 °F 56.7 °F 30 in SSW 2 mph 5 mph 58% 0 in 940 W/m2
13:48 72.7 °F 57.9 °F 30 in WNW 2.9 mph 9 mph 60% 0 in 969 W/m2
13:53 72.3 °F 57.2 °F 30 in NW 0.9 mph 4 mph 59% 0 in 1014 W/m2
13:58 72.7 °F 57.6 °F 30 in NNW 6 mph 9 mph 59% 0 in 1013 W/m2
14:04 73 °F 57.4 °F 30 in West 8.1 mph 8 mph 58% 0 in 1030 W/m2
14:09 73.4 °F 57.7 °F 30 in West 2.9 mph 5 mph 58% 0 in 1074 W/m2
14:14 73.9 °F 57.7 °F 30 in West 2.9 mph 7 mph 57% 0 in 1034 W/m2
14:19 73.9 °F 57.7 °F 30 in WSW 0.9 mph 6 mph 57% 0 in 1030 W/m2
14:24 73.6 °F 58.3 °F 30 in West 2.9 mph 6 mph 59% 0 in 248 W/m2
14:29 73 °F 58.3 °F 30 in Calm   4 mph 60% 0 in 645 W/m2
14:34 73.2 °F 57.6 °F 30 in WNW 2.9 mph 7 mph 58% 0 in 264 W/m2
14:39 73.6 °F 57.9 °F 30 in WNW 0.9 mph 4 mph 58% 0 in 294 W/m2
14:44 74.1 °F 57.9 °F 30 in NNW 0.9 mph 7 mph 57% 0 in 1055 W/m2
14:49 74.3 °F 58.1 °F 30 in Calm   3 mph 57% 0 in 281 W/m2
14:54 74.5 °F 57.2 °F 30 in West 2.9 mph 9 mph 55% 0 in 281 W/m2
14:59 74.3 °F 57.6 °F 30 in NW 2 mph 5 mph 56% 0 in 316 W/m2
15:04 73.8 °F 57.6 °F 30 in WNW 2 mph 9 mph 57% 0 in 308 W/m2
15:09 73.6 °F 57.9 °F 30 in West 10.1 mph 10 mph 58% 0 in 965 W/m2
15:14 73.6 °F 57.9 °F 30 in WNW 2 mph 4 mph 58% 0 in 642 W/m2
15:19 74.3 °F 58.6 °F 30 in WNW 4 mph 4 mph 58% 0 in 939 W/m2
15:24 74.7 °F 57.4 °F 30 in West 2.9 mph 7 mph 55% 0 in 970 W/m2
15:29 74.8 °F 56.5 °F 30 in Calm   5 mph 53% 0 in 940 W/m2
15:34 75.6 °F 58.3 °F 30 in WNW 2.9 mph 7 mph 55% 0 in 898 W/m2
15:39 75.6 °F 57.2 °F 30 in West 4 mph 7 mph 53% 0 in 930 W/m2
15:44 75.6 °F 58.3 °F 30 in West 2 mph 4 mph 55% 0 in 930 W/m2
15:49 75.9 °F 58.1 °F 30 in West 4 mph 8 mph 54% 0 in 970 W/m2
15:54 75.7 °F 57.4 °F 30 in WSW 4.9 mph 5 mph 53% 0 in 1007 W/m2
15:59 75.6 °F 57.2 °F 30 in NW 2.9 mph 7 mph 53% 0 in 1051 W/m2
16:04 75.6 °F 58.8 °F 30 in WNW 6 mph 7 mph 56% 0 in 1004 W/m2
16:09 75 °F 56.7 °F 30 in West 0.9 mph 6 mph 53% 0 in 227 W/m2
16:14 74.5 °F 56.7 °F 30 in NNW 4 mph 6 mph 54% 0 in 195 W/m2
16:19 74.1 °F 57.4 °F 30 in WNW 2.9 mph 4 mph 56% 0 in 192 W/m2
16:24 73.9 °F 57.7 °F 30 in NW 0.9 mph 5 mph 57% 0 in 163 W/m2
16:29 73.8 °F 57.6 °F 30 in WNW 2 mph 4 mph 57% 0 in 155 W/m2
16:34 73.6 °F 57.9 °F 30 in West 0.9 mph 6 mph 58% 0 in 186 W/m2
16:39 73.6 °F 57.9 °F 30 in West 2.9 mph 5 mph 58% 0 in 250 W/m2
16:44 73.6 °F 57.9 °F 30 in West 2.9 mph 6 mph 58% 0 in 403 W/m2
16:49 74.1 °F 57.4 °F 30 in WSW 6.9 mph 7 mph 56% 0 in 940 W/m2
16:54 74.7 °F 57.4 °F 30 in SSE 2 mph 5 mph 55% 0 in 336 W/m2
16:59 75 °F 58.3 °F 30 in WNW 2 mph 5 mph 56% 0 in 285 W/m2
17:04 74.8 °F 57.6 °F 30 in NW 0.9 mph 6 mph 55% 0 in 306 W/m2
17:09 74.7 °F 58.5 °F 30 in NW 2.9 mph 4 mph 57% 0 in 325 W/m2
17:14 74.7 °F 57.4 °F 30 in West 6 mph 8 mph 55% 0 in 374 W/m2
17:19 74.8 °F 57 °F 30 in North 2.9 mph 8 mph 54% 0 in 336 W/m2
17:24 74.8 °F 57 °F 30 in WSW 0.9 mph 3 mph 54% 0 in 439 W/m2
17:29 75 °F 57.2 °F 30 in Calm   3 mph 54% 0 in 533 W/m2
17:34 75.4 °F 58.1 °F 30 in Calm   1 mph 55% 0 in 605 W/m2
17:39 75.7 °F 57.9 °F 30 in SW 0.9 mph 3 mph 54% 0 in 315 W/m2
17:44 75.7 °F 57.4 °F 30 in WSW 2 mph 5 mph 53% 0 in 258 W/m2
17:49 75.9 °F 55.4 °F 30 in NW 4.9 mph 8 mph 49% 0 in 443 W/m2
17:54 75.9 °F 55.4 °F 30 in West 2.9 mph 7 mph 49% 0 in 415 W/m2
17:59 76.1 °F 56.7 °F 30 in WNW 2.9 mph 8 mph 51% 0 in 610 W/m2
18:04 76.5 °F 55.9 °F 30 in NW 2 mph 4 mph 49% 0 in 492 W/m2
18:09 76.8 °F 55.6 °F 30 in WSW 4 mph 8 mph 48% 0 in 503 W/m2
18:14 76.6 °F 56.7 °F 30 in West 4 mph 7 mph 50% 0 in 510 W/m2
18:19 76.6 °F 57.7 °F 30 in West 2 mph 2 mph 52% 0 in 160 W/m2
18:24 76.5 °F 57.6 °F 30 in West 2.9 mph 4 mph 52% 0 in 257 W/m2
18:29 76.3 °F 57.4 °F 30 in WNW 2 mph 4 mph 52% 0 in 480 W/m2
18:34 76.5 °F 58.6 °F 30 in WSW 2.9 mph 4 mph 54% 0 in 329 W/m2
18:39 76.6 °F 57.7 °F 30 in West 2 mph 6 mph 52% 0 in 322 W/m2
18:44 76.6 °F 57.7 °F 30 in WNW 4 mph 4 mph 52% 0 in 434 W/m2
18:49 76.8 °F 57.9 °F 30 in NW 2 mph 4 mph 52% 0 in 374 W/m2
18:54 76.8 °F 56.3 °F 30 in WSW 4.9 mph 7 mph 49% 0 in 357 W/m2
18:59 76.8 °F 56.8 °F 30 in WSW 2 mph 4 mph 50% 0 in 237 W/m2
19:04 76.5 °F 56.5 °F 30 in WSW 0.9 mph 3 mph 50% 0 in 165 W/m2
19:09 76.3 °F 57.4 °F 30 in West 2.9 mph 4 mph 52% 0 in 91 W/m2
19:14 75.7 °F 56.8 °F 30 in WNW 0.9 mph 3 mph 52% 0 in 86 W/m2
19:19 75.4 °F 58.1 °F 30 in WSW 2.9 mph 3 mph 55% 0 in 95 W/m2
19:24 74.8 °F 57 °F 30 in WSW 2 mph 3 mph 54% 0 in 104 W/m2
19:29 74.3 °F 58.6 °F 30 in WSW 0.9 mph 2 mph 58% 0 in 113 W/m2
19:34 73.9 °F 58.3 °F 30 in WSW 2.9 mph 3 mph 58% 0 in 127 W/m2
19:39 73.8 °F 58.1 °F 30 in West 0.9 mph 2 mph 58% 0 in 183 W/m2
19:44 73.8 °F 58.5 °F 30 in West 2.9 mph 3 mph 59% 0 in 218 W/m2
19:49 74.1 °F 58.5 °F 30 in West 2 mph 2 mph 58% 0 in 237 W/m2
19:54 74.5 °F 58.8 °F 30 in WNW 2.9 mph 3 mph 58% 0 in 142 W/m2
19:59 74.7 °F 58.8 °F 30 in WNW 2 mph 4 mph 58% 0 in 209 W/m2
20:04 74.8 °F 59 °F 30 in WNW 4 mph 4 mph 58% 0 in 195 W/m2
20:09 74.8 °F 57.6 °F 30 in West 2 mph 5 mph 55% 0 in 179 W/m2
20:14 74.8 °F 58.6 °F 30 in NW 2 mph 3 mph 57% 0 in 128 W/m2
20:19 74.5 °F 58.8 °F 30 in West 0.9 mph 3 mph 58% 0 in 102 W/m2
20:24 74.1 °F 58.5 °F 30 in WSW 0.9 mph 2 mph 58% 0 in 121 W/m2
20:29 73.9 °F 58.6 °F 30 in WNW 2 mph 3 mph 59% 0 in 40 W/m2
20:34 73.6 °F 58.8 °F 30 in West 0.9 mph 3 mph 60% 0 in 83 W/m2
20:39 73.2 °F 59.9 °F 30 in West 2.9 mph 3 mph 63% 0 in 70 W/m2
20:44 73.2 °F 59.4 °F 30 in WSW 2 mph 2 mph 62% 0 in 67 W/m2
20:49 73 °F 59.7 °F 30 in WSW 0.9 mph 2 mph 63% 0 in 47 W/m2
20:54 73 °F 60.1 °F 30 in Calm   1 mph 64% 0 in 53 W/m2
20:59 72.9 °F 59.9 °F 30 in Calm   2 mph 64% 0 in 46 W/m2
21:04 72.7 °F 59.4 °F 30 in WSW 0.9 mph 3 mph 63% 0 in 30 W/m2
21:09 72.3 °F 59.5 °F 30 in WSW 0.9 mph 1 mph 64% 0 in 26 W/m2
21:14 72 °F 59.5 °F 30 in WSW 0.9 mph 2 mph 65% 0 in 18 W/m2
21:19 71.4 °F 58.6 °F 30 in SW 4 mph 4 mph 64% 0 in 16 W/m2
21:24 70.9 °F 58.1 °F 30 in WSW 0.9 mph 2 mph 64% 0 in 14 W/m2
21:29 70.5 °F 58.6 °F 30 in Calm     66% 0 in 12 W/m2
21:35 70.3 °F 58.5 °F 30 in Calm   1 mph 66% 0 in 9 W/m2
21:40 70 °F 58.5 °F 30 in Calm     67% 0 in 7 W/m2
21:45 69.3 °F 58.3 °F 30 in WSW 0.9 mph 2 mph 68% 0 in 5 W/m2
21:50 68.5 °F 57.9 °F 30 in Calm   2 mph 69% 0 in 0 W/m2
21:55 68.2 °F 58.1 °F 30 in Calm   1 mph 70% 0 in 0 W/m2
22:00 67.6 °F 57.9 °F 30 in Calm   2 mph 71% 0 in 0 W/m2
22:05 67.3 °F 57.9 °F 30 in Calm   1 mph 72% 0 in 0 W/m2
22:10 66.9 °F 57.6 °F 30 in Calm     72% 0 in 0 W/m2
22:15 66.6 °F 57.2 °F 30 in Calm   1 mph 72% 0 in 0 W/m2
22:20 66 °F 57.2 °F 30 in Calm     73% 0 in 0 W/m2
22:25 65.7 °F 57.2 °F 30 in Calm     74% 0 in 0 W/m2
22:30 65.5 °F 57.4 °F 30 in Calm     75% 0 in 0 W/m2
22:35 64.9 °F 57.2 °F 30 in Calm     76% 0 in 0 W/m2
22:40 64.8 °F 57 °F 30 in Calm     76% 0 in 0 W/m2
22:45 64.4 °F 57 °F 30 in Calm     77% 0 in 0 W/m2
22:50 64.2 °F 56.8 °F 30 in Calm     77% 0 in 0 W/m2
22:55 64 °F 57 °F 30 in Calm     78% 0 in 0 W/m2
23:00 63.9 °F 56.8 °F 30 in Calm     78% 0 in 0 W/m2
23:05 63.7 °F 57 °F 30 in Calm     79% 0 in 0 W/m2
23:10 63.5 °F 56.8 °F 30 in Calm     79% 0 in 0 W/m2
23:15 63.1 °F 56.8 °F 30 in Calm     80% 0 in 0 W/m2
23:20 63.1 °F 57.2 °F 30 in Calm     81% 0 in 0 W/m2
23:25 63 °F 57 °F 30 in Calm     81% 0 in 0 W/m2
23:30 63 °F 57.4 °F 30 in Calm     82% 0 in 0 W/m2
23:35 62.8 °F 57.2 °F 30 in Calm     82% 0 in 0 W/m2
23:40 62.4 °F 56.8 °F 30 in Calm     82% 0 in 0 W/m2
23:45 62.2 °F 57 °F 30 in Calm     83% 0 in 0 W/m2
23:50 62.1 °F 56.8 °F 30 in Calm     83% 0 in 0 W/m2
23:55 61.9 °F 56.7 °F 30 in Calm     83% 0 in 0 W/m2
Juneau County Weather
Compliments of Weather Underground - 4 mb